This demonstration page uses our WeatherBlox Daily Observations layout. Learn more.

Left ArrowRight Arrow

39.29038, -76.61219

Hourly Observations for July 25, 2020

Temp ( °F °C ) Dew Point ( °F °C ) Humidity (%) Winds ( mph kmh ) Pressure ( in mb ) Visibility ( mi km ) Precip ( " mm )
12:54 am 00:54 Mostly Cloudy 72 22.2 69 20.6 91 91 Calm 30.08 1019 10 16 0.00 0.00
1:54 am 01:54 Partly Cloudy 72 22.2 69 20.6 91 91 NNW 3 6 30.07 1018 10 16 0.00 0.00
2:54 am 02:54 Mostly Clear 73 22.8 70 21.1 90 90 Calm 30.06 1018 9 14 0.00 0.00
3:54 am 03:54 Mostly Clear 71 21.7 69 20.6 94 94 Calm 30.06 1018 8 13 0.00 0.00
4:54 am 04:54 Mostly Clear with Mist and Fog 72 22.2 69 20.6 91 91 Calm 30.06 1018 6 10 0.00 0.00
5:54 am 05:54 Mostly Clear with Mist and Fog 72 22.2 70 21.1 94 94 Calm 30.07 1018 5 8 0.00 0.00
6:54 am 06:54 Partly Cloudy with Mist and Fog 73 22.8 70 21.1 90 90 Calm 30.09 1019 5 8 0.00 0.00
7:14 am 07:14 Mostly Cloudy with Mist and Fog 75 23.9 71 21.7 88 88 NNE 5 7 30.09 1019 6 10 0.00 0.00
7:54 am 07:54 Mostly Cloudy with Mist and Fog 77 25 73 22.8 88 88 Calm 30.11 1020 5 8 0.00 0.00
8:54 am 08:54 Cloudy with Mist and Fog 79 26.1 73 22.8 82 82 Calm 30.11 1020 4 6 0.00 0.00
9:54 am 09:54 Cloudy with Mist and Fog 80 26.7 73 22.8 79 79 NNW 3 6 30.13 1020 6 10 0.00 0.00
10:01 am 10:01 Cloudy with Mist and Fog 80 26.7 73 22.8 79 79 VRB 3 6 30.12 1020 6 10 0.00 0.00
10:54 am 10:54 Mostly Cloudy 82 27.8 73 22.8 74 74 Calm 30.11 1020 8 13 0.00 0.00
11:01 am 11:01 Mostly Cloudy 83 28.3 74 23.3 74 74 Calm 30.11 1020 8 13 0.00 0.00
11:54 am 11:54 Mostly Cloudy 84 28.9 72 22.2 67 67 Calm 30.11 1020 8 13 0.00 0.00
12:54 pm 12:54 Partly Cloudy 88 31.1 71 21.7 57 57 NE 5 7 30.10 1019 10 16 0.00 0.00
1:54 pm 13:54 Mostly Cloudy 88 31.1 72 22.2 59 59 E 5 7 30.09 1019 10 16 0.00 0.00
2:54 pm 14:54 Mostly Cloudy 89 31.7 71 21.7 55 55 E 5 7 30.07 1018 10 16 0.00 0.00
3:54 pm 15:54 Partly Cloudy 90 32.2 72 22.2 56 56 SE 7 11 30.05 1018 10 16 0.00 0.00
4:54 pm 16:54 Partly Cloudy 89 31.7 70 21.1 53 53 ESE 5 7 30.04 1017 10 16 0.00 0.00
5:54 pm 17:54 Partly Cloudy 89 31.7 71 21.7 55 55 SSE 7 11 30.03 1017 10 16 0.00 0.00
6:54 pm 18:54 Partly Cloudy 88 31.1 69 20.6 54 54 SSE 6 9 30.04 1017 10 16 0.00 0.00
7:54 pm 19:54 Partly Cloudy 86 30 70 21.1 59 59 SSE 6 9 30.04 1017 10 16 0.00 0.00
8:54 pm 20:54 Partly Cloudy 84 28.9 70 21.1 63 63 S 5 7 30.04 1017 10 16 0.00 0.00
9:54 pm 21:54 Clear 82 27.8 71 21.7 69 69 SSE 3 6 30.07 1018 10 16 0.00 0.00
10:54 pm 22:54 Partly Cloudy 81 27.2 71 21.7 72 72 SSE 5 7 30.08 1019 10 16 0.00 0.00
11:54 pm 23:54 Mostly Cloudy 80 26.7 72 22.2 76 76 SW 5 7 30.08 1019 10 16 0.00 0.00

Powered by AerisWeather